Globalstar M081

operational
NORAD ID: 37743 Int'l Des: 2011-033 Owner: GLOBL Country: US Constellation: globalstar
LEOCIRCULAR

Über Globalstar M081

Beschreibung wird geladen...

Live-Position

3D-Globus wird geladen...

Nächste Überflüge

Höhenverlauf

Altitude vs Time

uPlot chart will show altitude changes over time

Zweizeiliger Elementsatz

1 37743U 11033E 25299.40901933 -.00000074 00000-0 16686-3 0 9990
2 37743 51.9947 187.4278 0000738 83.3165 87.2337 12.62269685660416
Epoch: 26. Okt. 2025 • Age: 8 hours

Aktueller Status

Höhe 1431.9 km
Geschwindigkeit 7.15 km/s
Subsatellitenpunkt -51.25°S, 138.25°E
Startdatum 13. Juli 2011
Alter 14.2 years
Typ communications

Technische Details

Klassifizierung Payload
Masse 715.00 kg
Trockenmasse 500.00 kg
Gesamtmasse 715.00 kg
Länge 4.00 m
Durchmesser 2.00 m
Spannweite 12.00 m
Form Trap Cyl + 2 Pan
Hersteller THALR
Bus-Typ Prisma
Phasenstatus In Orbit
Besitzer/Staat GLOBL/US

Große Konstellationen

Loading constellations...